Location: Cointrin
(46.2167°N, 6.1167°E)
Time: 03:11:03
(UTC+00:00)

Cosmos 2278 Rocket - Pass Details

Date: 08 February 2023
Orbit: 841 x 845 km, 71.0° (Epoch: 26 March)

Event Time Altitude Azimuth Distance (km) Brightness Sun altitude
Rises 18:42:41 0° 335° (NNW) 3,415 5.7 -19.8°
Reaches altitude 10° 18:45:10 10° 338° (NNW) 2,475 4.9 -20.2°
Maximum altitude 18:50:50 69° 61° (ENE) 906 2.1 -21.2°
Enters shadow 18:53:18 34° 135° (SE) 1,357 2.9 -21.6°
